Погода в Новоминской

Россия / Краснодарский край     46°18′57″N   38°57′09″E
темп.,
°C
ветер,
м/с
пор.,
м/с
влажн.,
%
обл.,
%
осадки,
мм/ч
давл.,
гПа
погр.,
м
3 марта, ср
ср300:00+3зюз61381100 0.0 1021922
03:00+2зюз101696100 0.3 1018890
06:00+1зсз71197100 2.0 1016701
09:00+2зсз61197100 2.4 1018666
12:00+3ссз6986100 0.1 1021771
15:00+5сз786498 0.3 10221296
18:00+3сз377385 0.1 1023512
21:00+2сз357975 0.1 1026124
4 марта, чт
чт400:000зсз228126 0.0 102628
03:000зюз237813 0.0 102755
06:000юз35740 0.0 1026100
09:00+3юз58670 0.0 1026443
12:00+7зюз69570 0.0 10241240
15:00+7зюз811570 0.0 10221368
18:00+5зюз512710 0.0 1020460
21:00+3юз615820 0.0 1020652
5 марта, пт
пт500:00+3юз7158416 0.0 1019661
03:00+2юз6158435 0.0 1018622
06:00+2юз716870 0.0 1018591
09:00+5юз8147810 0.0 1017689
12:00+9юз8116213 0.0 1017966
15:00+11юз711549 0.0 10161192
18:00+8ююз613620 0.0 1015725
21:00+6ююз8177143 0.0 1015695
6 марта, сб
сб600:00+6юз81771100 0.0 1014650
03:00+5юз61873100 0.0 1014728
06:00+5юз61681100 0.0 1014603
09:00+7зюз6108699 0.0 1015649
12:00+8з5884100 0.0 1015625
15:00+4ссз5893100 0.5 1015335
18:00+2ссз4696100 2.3 1016399
21:00+2сз2688100 3.6 1019593
7 марта, вс
вс700:00+2сз3778100 0.2 1020603
03:00−1ссз4107284 0.2 1023462
06:00−2сз486522 0.0 1024446
09:00−1сз455211 0.0 1026935
12:00+1зсз56430 0.0 10261283
15:00+2з66460 0.0 10241381
18:000зюз48580 0.0 1023598
21:00−1юз49690 0.0 1023360